Time,TemperatureF,DewpointF,PressureIn,WindDirection,WindDirectionDegrees,WindSpeedMPH,WindSpeedGustMPH,Humidity,HourlyPrecipIn,Conditions,Clouds,dailyrainin,SoftwareType,DateUTC
2013-05-03 00:07:00,63.3,47.0,30.09,SE,127,0.0,5.0,56,0.00,,,0.00,weatherlink.com 1.10,2013-05-03 04:07:00,
2013-05-03 00:22:00,63.3,46.0,30.09,SE,143,2.0,4.0,54,0.00,,,0.00,weatherlink.com 1.10,2013-05-03 04:22:00,
2013-05-03 00:37:00,63.5,44.0,30.09,East,95,2.0,9.0,49,0.00,,,0.00,weatherlink.com 1.10,2013-05-03 04:37:00,
2013-05-03 00:52:00,63.2,44.0,30.09,ESE,109,3.0,7.0,50,0.00,,,0.00,weatherlink.com 1.10,2013-05-03 04:52:00,
2013-05-03 01:07:00,63.0,44.0,30.09,East,95,4.0,7.0,50,0.00,,,0.00,weatherlink.com 1.10,2013-05-03 05:07:00,
2013-05-03 01:22:00,62.8,42.0,30.09,SE,127,3.0,5.0,47,0.00,,,0.00,weatherlink.com 1.10,2013-05-03 05:22:00,
2013-05-03 01:37:00,62.5,42.0,30.09,SE,134,1.0,5.0,47,0.00,,,0.00,weatherlink.com 1.10,2013-05-03 05:37:00,
2013-05-03 01:52:00,61.8,42.0,30.08,East,84,1.0,3.0,48,0.00,,,0.00,weatherlink.com 1.10,2013-05-03 05:52:00,
2013-05-03 02:07:00,61.5,41.0,30.08,ESE,102,1.0,3.0,48,0.00,,,0.00,weatherlink.com 1.10,2013-05-03 06:07:00,
2013-05-03 02:22:00,61.2,42.0,30.07,ENE,75,1.0,4.0,49,0.00,,,0.00,weatherlink.com 1.10,2013-05-03 06:22:00,
2013-05-03 02:37:00,60.9,41.0,30.07,SE,129,1.0,5.0,49,0.00,,,0.00,weatherlink.com 1.10,2013-05-03 06:37:00,
2013-05-03 02:52:00,60.7,41.0,30.07,SE,139,1.0,3.0,49,0.00,,,0.00,weatherlink.com 1.10,2013-05-03 06:52:00,
2013-05-03 03:07:00,60.7,41.0,30.06,SE,131,1.0,4.0,48,0.00,,,0.00,weatherlink.com 1.10,2013-05-03 07:07:00,
2013-05-03 03:22:00,60.9,41.0,30.06,ESE,113,2.0,5.0,48,0.00,,,0.00,weatherlink.com 1.10,2013-05-03 07:22:00,
2013-05-03 03:37:00,60.8,41.0,30.06,SE,130,1.0,4.0,48,0.00,,,0.00,weatherlink.com 1.10,2013-05-03 07:37:00,
2013-05-03 03:52:00,60.3,42.0,30.06,East,84,2.0,3.0,51,0.00,,,0.00,weatherlink.com 1.10,2013-05-03 07:52:00,
2013-05-03 04:07:00,60.2,42.0,30.06,ESE,109,1.0,3.0,51,0.00,,,0.00,weatherlink.com 1.10,2013-05-03 08:07:00,
2013-05-03 04:22:00,60.3,42.0,30.06,East,87,3.0,5.0,52,0.00,,,0.00,weatherlink.com 1.10,2013-05-03 08:22:00,
2013-05-03 04:37:00,60.0,43.0,30.06,SE,135,2.0,4.0,53,0.00,,,0.00,weatherlink.com 1.10,2013-05-03 08:37:00,
2013-05-03 04:52:00,59.6,43.0,30.06,ENE,75,2.0,3.0,54,0.00,,,0.00,weatherlink.com 1.10,2013-05-03 08:52:00,
2013-05-03 05:07:00,58.8,43.0,30.06,ESE,110,1.0,3.0,56,0.00,,,0.00,weatherlink.com 1.10,2013-05-03 09:07:00,
2013-05-03 05:23:00,58.2,43.0,30.06,ENE,62,3.0,3.0,57,0.00,,,0.00,weatherlink.com 1.10,2013-05-03 09:23:00,
2013-05-03 05:38:00,58.0,43.0,30.07,ENE,75,2.0,3.0,58,0.00,,,0.00,weatherlink.com 1.10,2013-05-03 09:38:00,
2013-05-03 05:53:00,57.8,43.0,30.06,SE,129,0.0,3.0,59,0.00,,,0.00,weatherlink.com 1.10,2013-05-03 09:53:00,
2013-05-03 06:09:00,57.6,43.0,30.07,SE,135,1.0,2.0,59,0.00,,,0.00,weatherlink.com 1.10,2013-05-03 10:09:00,
2013-05-03 06:23:00,57.5,43.0,30.07,ENE,76,3.0,3.0,59,0.00,,,0.00,weatherlink.com 1.10,2013-05-03 10:23:00,
2013-05-03 06:38:00,57.0,43.0,30.07,East,84,2.0,3.0,61,0.00,,,0.00,weatherlink.com 1.10,2013-05-03 10:38:00,
2013-05-03 06:53:00,56.7,44.0,30.07,ENE,72,2.0,3.0,62,0.00,,,0.00,weatherlink.com 1.10,2013-05-03 10:53:00,
2013-05-03 07:08:00,57.4,44.0,30.07,East,82,2.0,3.0,61,0.00,,,0.00,weatherlink.com 1.10,2013-05-03 11:08:00,
2013-05-03 07:23:00,58.8,44.0,30.07,ENE,65,2.0,4.0,59,0.00,,,0.00,weatherlink.com 1.10,2013-05-03 11:23:00,
2013-05-03 07:38:00,59.9,44.0,30.08,SE,134,0.0,5.0,56,0.00,,,0.00,weatherlink.com 1.10,2013-05-03 11:38:00,
2013-05-03 07:53:00,60.7,44.0,30.08,East,84,3.0,6.0,55,0.00,,,0.00,weatherlink.com 1.10,2013-05-03 11:53:00,
2013-05-03 08:08:00,62.1,45.0,30.08,East,86,2.0,7.0,54,0.00,,,0.00,weatherlink.com 1.10,2013-05-03 12:08:00,
2013-05-03 08:23:00,63.2,46.0,30.08,South,188,1.0,6.0,53,0.00,,,0.00,weatherlink.com 1.10,2013-05-03 12:23:00,
2013-05-03 08:38:00,64.7,47.0,30.08,South,172,6.0,8.0,53,0.00,,,0.00,weatherlink.com 1.10,2013-05-03 12:38:00,
2013-05-03 08:53:00,65.5,47.0,30.07,ESE,117,2.0,9.0,52,0.00,,,0.00,weatherlink.com 1.10,2013-05-03 12:53:00,
2013-05-03 09:08:00,67.5,49.0,30.07,SSE,155,5.0,8.0,51,0.00,,,0.00,weatherlink.com 1.10,2013-05-03 13:08:00,
2013-05-03 09:23:00,69.2,51.0,30.07,SE,125,2.0,7.0,52,0.00,,,0.00,weatherlink.com 1.10,2013-05-03 13:23:00,
2013-05-03 09:38:00,71.4,52.0,30.07,SE,129,4.0,7.0,50,0.00,,,0.00,weatherlink.com 1.10,2013-05-03 13:38:00,
2013-05-03 09:53:00,72.6,52.0,30.07,ENE,66,5.0,11.0,49,0.00,,,0.00,weatherlink.com 1.10,2013-05-03 13:53:00,
2013-05-03 10:08:00,74.1,54.0,30.06,SSW,203,1.0,6.0,50,0.00,,,0.00,weatherlink.com 1.10,2013-05-03 14:08:00,
2013-05-03 10:23:00,74.3,55.0,30.06,SW,234,4.0,10.0,51,0.00,,,0.00,weatherlink.com 1.10,2013-05-03 14:23:00,
2013-05-03 10:38:00,74.1,54.0,30.06,East,101,0.0,9.0,50,0.00,,,0.00,weatherlink.com 1.10,2013-05-03 14:38:00,
2013-05-03 10:53:00,73.7,53.0,30.06,SE,125,8.0,11.0,49,0.00,,,0.00,weatherlink.com 1.10,2013-05-03 14:53:00,
2013-05-03 11:08:00,74.4,54.0,30.06,NE,41,5.0,11.0,50,0.00,,,0.00,weatherlink.com 1.10,2013-05-03 15:08:00,
2013-05-03 11:23:00,74.6,54.0,30.06,SE,146,2.0,9.0,48,0.00,,,0.00,weatherlink.com 1.10,2013-05-03 15:23:00,
2013-05-03 11:38:00,74.6,54.0,30.06,ESE,107,1.0,9.0,48,0.00,,,0.00,weatherlink.com 1.10,2013-05-03 15:38:00,
2013-05-03 11:53:00,75.0,54.0,30.05,East,84,1.0,10.0,48,0.00,,,0.00,weatherlink.com 1.10,2013-05-03 15:53:00,
2013-05-03 12:08:00,76.0,54.0,30.05,ENE,75,5.0,11.0,46,0.00,,,0.00,weatherlink.com 1.10,2013-05-03 16:08:00,
2013-05-03 12:23:00,77.2,55.0,30.05,ESE,121,3.0,10.0,47,0.00,,,0.00,weatherlink.com 1.10,2013-05-03 16:23:00,
2013-05-03 12:38:00,77.4,54.0,30.05,SE,146,6.0,14.0,44,0.00,,,0.00,weatherlink.com 1.10,2013-05-03 16:38:00,
2013-05-03 12:53:00,77.9,54.0,30.04,South,184,5.0,8.0,44,0.00,,,0.00,weatherlink.com 1.10,2013-05-03 16:53:00,
2013-05-03 13:08:00,78.3,54.0,30.04,ESE,115,3.0,14.0,43,0.00,,,0.00,weatherlink.com 1.10,2013-05-03 17:08:00,
2013-05-03 13:23:00,77.9,54.0,30.04,SSE,160,3.0,16.0,44,0.00,,,0.00,weatherlink.com 1.10,2013-05-03 17:23:00,
2013-05-03 13:54:00,77.0,55.0,30.04,East,85,4.0,12.0,46,0.00,,,0.00,weatherlink.com 1.10,2013-05-03 17:54:00,
2013-05-03 14:09:00,76.7,54.0,30.04,East,101,7.0,14.0,46,0.00,,,0.00,weatherlink.com 1.10,2013-05-03 18:09:00,
2013-05-03 14:24:00,76.3,54.0,30.04,ESE,112,3.0,12.0,46,0.00,,,0.00,weatherlink.com 1.10,2013-05-03 18:24:00,
2013-05-03 14:39:00,76.5,55.0,30.04,SSE,152,5.0,12.0,47,0.00,,,0.00,weatherlink.com 1.10,2013-05-03 18:39:00,
2013-05-03 14:54:00,76.4,55.0,30.04,ENE,73,13.0,13.0,48,0.00,,,0.00,weatherlink.com 1.10,2013-05-03 18:54:00,
2013-05-03 15:09:00,77.4,56.0,30.04,SSW,206,4.0,13.0,47,0.00,,,0.00,weatherlink.com 1.10,2013-05-03 19:09:00,
2013-05-03 15:24:00,77.4,56.0,30.03,SSE,159,5.0,13.0,47,0.00,,,0.00,weatherlink.com 1.10,2013-05-03 19:24:00,
2013-05-03 15:39:00,77.1,55.0,30.03,ENE,75,8.0,19.0,46,0.00,,,0.00,weatherlink.com 1.10,2013-05-03 19:39:00,
2013-05-03 15:54:00,77.4,56.0,30.02,SSE,156,7.0,15.0,47,0.00,,,0.00,weatherlink.com 1.10,2013-05-03 19:54:00,
2013-05-03 16:09:00,77.8,55.0,30.02,East,86,2.0,12.0,46,0.00,,,0.00,weatherlink.com 1.10,2013-05-03 20:09:00,
2013-05-03 16:24:00,77.1,54.0,30.01,ENE,61,5.0,15.0,45,0.00,,,0.00,weatherlink.com 1.10,2013-05-03 20:24:00,
2013-05-03 16:39:00,77.5,54.0,30.01,SE,127,7.0,14.0,45,0.00,,,0.00,weatherlink.com 1.10,2013-05-03 20:39:00,
2013-05-03 17:09:00,76.6,53.0,30.02,SE,136,7.0,13.0,44,0.00,,,0.00,weatherlink.com 1.10,2013-05-03 21:09:00,
2013-05-03 17:24:00,76.7,50.0,30.02,SSE,156,4.0,15.0,39,0.00,,,0.00,weatherlink.com 1.10,2013-05-03 21:24:00,
2013-05-03 17:39:00,76.3,47.0,30.02,ESE,120,6.0,13.0,36,0.00,,,0.00,weatherlink.com 1.10,2013-05-03 21:39:00,
2013-05-03 17:54:00,76.1,44.0,30.02,South,188,3.0,15.0,32,0.00,,,0.00,weatherlink.com 1.10,2013-05-03 21:54:00,
2013-05-03 18:09:00,75.3,40.0,30.02,East,85,2.0,16.0,28,0.00,,,0.00,weatherlink.com 1.10,2013-05-03 22:09:00,
2013-05-03 18:24:00,75.9,37.0,30.02,SSE,155,5.0,13.0,24,0.00,,,0.00,weatherlink.com 1.10,2013-05-03 22:24:00,
2013-05-03 18:39:00,75.6,34.0,30.02,East,79,7.0,14.0,22,0.00,,,0.00,weatherlink.com 1.10,2013-05-03 22:39:00,
2013-05-03 18:54:00,74.8,37.0,30.02,ENE,76,6.0,16.0,25,0.00,,,0.00,weatherlink.com 1.10,2013-05-03 22:54:00,
2013-05-03 19:09:00,74.1,36.0,30.03,East,98,2.0,14.0,25,0.00,,,0.00,weatherlink.com 1.10,2013-05-03 23:09:00,
2013-05-03 19:24:00,73.3,36.0,30.02,ENE,57,5.0,11.0,26,0.00,,,0.00,weatherlink.com 1.10,2013-05-03 23:24:00,
2013-05-03 19:39:00,72.6,35.0,30.03,SSE,151,2.0,9.0,25,0.00,,,0.00,weatherlink.com 1.10,2013-05-03 23:39:00,
2013-05-03 19:54:00,71.8,35.0,30.03,East,82,3.0,12.0,26,0.00,,,0.00,weatherlink.com 1.10,2013-05-03 23:54:00,
2013-05-03 20:09:00,70.6,36.0,30.04,East,89,5.0,8.0,28,0.00,,,0.00,weatherlink.com 1.10,2013-05-04 00:09:00,
2013-05-03 20:24:00,69.8,36.0,30.04,ENE,63,1.0,8.0,29,0.00,,,0.00,weatherlink.com 1.10,2013-05-04 00:24:00,
2013-05-03 20:39:00,68.9,36.0,30.04,SE,143,2.0,6.0,30,0.00,,,0.00,weatherlink.com 1.10,2013-05-04 00:39:00,
2013-05-03 20:54:00,68.4,36.0,30.04,ESE,108,6.0,10.0,31,0.00,,,0.00,weatherlink.com 1.10,2013-05-04 00:54:00,
2013-05-03 21:09:00,68.1,37.0,30.04,ENE,72,2.0,7.0,32,0.00,,,0.00,weatherlink.com 1.10,2013-05-04 01:09:00,
2013-05-03 21:24:00,67.0,38.0,30.05,ESE,110,1.0,3.0,35,0.00,,,0.00,weatherlink.com 1.10,2013-05-04 01:24:00,
2013-05-03 21:39:00,66.1,38.0,30.05,SE,142,1.0,5.0,36,0.00,,,0.00,weatherlink.com 1.10,2013-05-04 01:39:00,
2013-05-03 21:54:00,65.9,39.0,30.05,ENE,73,1.0,4.0,38,0.00,,,0.00,weatherlink.com 1.10,2013-05-04 01:54:00,
2013-05-03 22:09:00,65.0,40.0,30.05,East,83,2.0,3.0,40,0.00,,,0.00,weatherlink.com 1.10,2013-05-04 02:09:00,
2013-05-03 22:24:00,64.7,41.0,30.05,SSE,156,2.0,3.0,42,0.00,,,0.00,weatherlink.com 1.10,2013-05-04 02:24:00,
2013-05-03 22:39:00,64.7,42.0,30.05,SSE,149,2.0,4.0,44,0.00,,,0.00,weatherlink.com 1.10,2013-05-04 02:39:00,
2013-05-03 22:54:00,64.8,42.0,30.05,ESE,117,3.0,6.0,44,0.00,,,0.00,weatherlink.com 1.10,2013-05-04 02:54:00,
2013-05-03 23:09:00,64.9,43.0,30.04,SE,135,1.0,8.0,45,0.00,,,0.00,weatherlink.com 1.10,2013-05-04 03:09:00,
2013-05-03 23:24:00,64.5,43.0,30.04,East,95,2.0,5.0,46,0.00,,,0.00,weatherlink.com 1.10,2013-05-04 03:24:00,
2013-05-03 23:39:00,64.1,43.0,30.04,SE,138,2.0,7.0,46,0.00,,,0.00,weatherlink.com 1.10,2013-05-04 03:39:00,
2013-05-03 23:54:00,63.8,43.0,30.04,ENE,68,3.0,7.0,47,0.00,,,0.00,weatherlink.com 1.10,2013-05-04 03:54:00,